Temp
61 61 61 60 60 60 60 60 60 61 61 63 64 64 63 63 63 62 59 65 67 69 70 70 70 70 70 70 70 70 70 69 69 69 69 69 69 70 70 70 70 70 70
60 61 60 60 59 59 60 60 60 59 60 61 62 63 63 63 63 63 60 60 66 67 68 68 69 69 69 69 69 69 69 69 69 68 69 68 68 69 70 70 70 70 70
62 61 60 59 59 59 60 60 60 60 59 62 59 61 62 62 63 63 63 61 61 64 66 67 68 68 67 68 69 69 68 68 67 68 68 68 68 68 69 69 69 69 69
63 60 59 59 60 60 59 58 57 57 57 57 56 58 59 62 62 62 64 62 62 62 64 66 66 67 66 67 67 68 68 67 67 67 67 68 68 68 68 68 68 68 69
65 61 60 59 60 59 58 58 57 56 54 55 58 58 58 59 60 65 61 62 62 61 60 64 65 65 65 65 67 67 67 66 66 66 67 67 67 68 68 68 68 68 68
64 61 60 60 60 58 57 56 55 56 55 54 60 60 56 58 59 58 59 63 61 61 60 60 58 58 64 64 66 67 66 65 65 66 66 67 67 67 67 68 67 66 67
63 61 59 59 58 57 56 57 55 54 53 54 52 52 55 57 58 58 57 58 59 61 60 59 57 56 58 64 65 66 64 65 65 65 66 66 66 67 67 67 67 66 66
62 62 58 57 57 56 56 55 54 52 52 53 50 48 47 52 54 57 56 59 57 58 59 60 58 59 56 55 57 63 64 64 64 65 65 66 66 66 68 67 66 66 66
61 59 58 56 56 55 53 53 52 52 49 51 53 50 45 43 47 53 54 55 56 55 56 57 58 59 57 55 57 57 61 61 62 64 65 65 66 66 67 67 67 66 65
58 58 57 56 55 54 52 52 55 51 50 48 51 56 51 50 44 43 50 54 54 57 54 54 55 57 57 55 58 58 59 60 61 63 64 65 66 66 66 67 66 65 64
57 57 56 55 54 53 52 52 51 51 51 49 48 49 49 49 49 45 45 46 51 53 54 53 54 53 56 56 54 56 60 60 62 63 64 65 66 66 66 66 65 64 63
54 55 56 54 53 52 51 51 51 51 50 50 49 49 48 47 47 45 44 46 46 49 51 52 52 53 54 54 57 58 58 59 61 62 63 64 65 65 65 65 64 64 63
51 52 53 53 52 53 53 53 51 50 50 49 48 48 49 49 50 48 46 46 44 47 49 50 52 52 56 53 54 55 56 59 60 61 62 64 64 63 62 62 63 63 62
52 53 53 53 54 54 53 52 50 50 50 48 48 48 48 49 49 49 47 44 43 44 45 47 51 51 51 52 54 56 53 56 58 60 62 62 61 60 60 60 60 61 61
55 53 53 53 52 53 52 51 49 49 49 48 47 47 47 48 48 48 48 46 43 40 42 44 46 49 50 51 52 53 52 55 58 59 59 59 58 58 58 58 58 58 59
53 52 52 52 52 51 51 50 48 49 48 46 49 47 47 47 47 47 46 46 45 44 40 44 46 47 50 54 53 51 51 53 55 58 58 57 57 57 57 57 57 57 57
52 51 51 51 50 49 49 47 47 47 46 46 46 46 46 47 45 45 45 45 44 44 42 46 45 46 46 47 50 48 49 49 48 54 56 55 56 56 56 55 55 56 56
51 51 50 49 49 48 47 46 45 45 44 44 45 44 45 50 44 43 43 43 42 43 43 42 45 42 44 45 44 43 48 52 49 53 54 54 55 55 55 55 54 54 54
49 49 49 47 47 47 46 45 45 44 44 44 44 43 43 43 41 41 41 41 41 46 43 43 42 43 42 41 42 45 46 46 50 51 52 54 54 54 55 55 54 53 53
47 47 47 47 46 46 46 46 45 43 42 44 43 43 43 42 41 40 41 39 43 39 40 41 41 40 39 41 39 39 40 44 45 50 50 51 52 52 53 54 54 52 51
46 46 45 45 45 46 48 44 43 41 40 40 41 43 44 44 46 46 46 41 39 39 38 37 38 39 40 42 40 42 41 40 42 45 46 43 43 43 47 49 50 50 50
44 44 43 43 42 47 49 49 47 40 40 40 40 42 42 45 44 49 49 49 47 39 37 38 39 38 39 41 42 39 40 38 35 41 38 40 42 42 43 44 48 50 50
41 41 41 41 41 41 48 49 48 43 39 38 39 40 42 47 45 42 45 47 45 47 47 42 38 38 38 41 40 37 36 34 36 42 40 38 42 41 43 46 49 50 51
40 40 39 40 39 42 47 48 48 42 39 39 39 40 40 39 40 42 40 38 38 39 41 43 41 40 40 41 38 39 37 35 37 41 41 35 40 39 43 42 46 48 50
39 38 41 41 41 41 46 47 47 40 38 37 40 40 39 38 43 47 41 36 36 37 44 46 46 46 46 47 46 38 34 33 33 36 38 36 38 37 39 40 43 46 49
41 42 42 41 42 42 45 47 46 38 35 37 37 40 44 43 46 46 39 35 33 35 37 38 39 40 42 40 45 38 34 33 32 32 36 34 35 35 33 36 35 38 37
MSLP
1019.42 1019.42 1019.48 1019.56 1019.68 1019.57 1019.54 1019.45 1019.27 1019.03 1018.82 1018.57 1018.35 1018.28 1018.24 1018.18 1018.13 1018.48 1018.59 1018.57 1018.70 1018.71 1018.66 1018.55 1018.38 1018.18 1017.94 1017.80 1017.61 1017.46 1017.17 1017.02 1016.83 1016.60 1016.29 1016.09 1015.89 1015.62 1015.41 1015.14 1015.03 1014.91 1014.66
1019.67 1019.66 1019.75 1019.82 1019.86 1019.80 1019.71 1019.64 1019.56 1019.42 1019.16 1018.94 1018.77 1018.49 1018.44 1018.34 1018.25 1018.28 1018.64 1018.75 1018.71 1018.77 1018.72 1018.78 1018.74 1018.57 1018.32 1018.14 1017.85 1017.71 1017.43 1017.20 1017.02 1016.84 1016.54 1016.34 1016.07 1015.78 1015.54 1015.39 1015.25 1015.08 1014.82
1019.81 1019.81 1019.91 1020.07 1020.01 1019.88 1019.80 1019.77 1019.65 1019.52 1019.50 1019.21 1019.24 1018.86 1018.73 1018.59 1018.52 1018.49 1018.43 1018.67 1018.81 1018.90 1018.98 1018.88 1018.84 1018.77 1018.66 1018.46 1018.14 1017.81 1017.63 1017.36 1017.16 1016.93 1016.66 1016.53 1016.29 1015.90 1015.63 1015.56 1015.41 1015.22 1015.02
1019.90 1020.01 1020.06 1020.14 1020.05 1020.05 1020.01 1019.99 1020.05 1020.01 1019.91 1019.75 1019.57 1019.22 1018.91 1018.75 1018.58 1018.59 1018.53 1018.55 1018.67 1018.82 1019.01 1018.99 1018.85 1018.80 1018.73 1018.53 1018.28 1018.03 1017.72 1017.54 1017.28 1017.03 1016.73 1016.56 1016.36 1016.12 1015.88 1015.67 1015.51 1015.32 1015.12
1020.08 1020.19 1020.24 1020.22 1020.12 1020.16 1020.29 1020.34 1020.38 1020.27 1020.26 1020.05 1019.72 1019.26 1018.99 1019.02 1018.80 1018.52 1018.70 1018.68 1018.62 1018.80 1018.88 1018.91 1018.81 1018.66 1018.65 1018.54 1018.28 1018.03 1017.82 1017.61 1017.40 1017.17 1016.85 1016.61 1016.34 1016.06 1015.90 1015.74 1015.54 1015.33 1015.16
1020.21 1020.29 1020.40 1020.42 1020.33 1020.51 1020.66 1020.58 1020.69 1020.54 1020.37 1020.29 1019.87 1019.42 1019.04 1018.83 1018.76 1018.79 1018.68 1018.54 1018.57 1018.57 1018.77 1018.74 1018.74 1018.63 1018.39 1018.39 1018.22 1017.91 1017.87 1017.65 1017.44 1017.12 1016.88 1016.57 1016.36 1016.12 1015.84 1015.59 1015.53 1015.46 1015.16
1020.30 1020.29 1020.53 1020.66 1020.69 1020.84 1020.90 1020.96 1020.92 1020.90 1020.86 1020.44 1020.26 1019.84 1019.15 1018.92 1019.02 1018.89 1018.67 1018.63 1018.61 1018.49 1018.44 1018.43 1018.43 1018.40 1018.29 1018.11 1018.00 1017.85 1017.78 1017.63 1017.43 1017.12 1016.81 1016.60 1016.43 1016.04 1015.81 1015.56 1015.40 1015.34 1015.14
1020.56 1020.41 1020.65 1020.90 1020.97 1021.12 1021.07 1021.28 1021.36 1021.48 1021.22 1020.96 1021.12 1020.91 1020.39 1019.85 1019.54 1019.13 1018.90 1018.89 1018.81 1018.61 1018.58 1018.31 1018.21 1018.12 1018.05 1017.98 1017.81 1017.70 1017.58 1017.52 1017.46 1017.17 1016.86 1016.61 1016.36 1016.03 1015.55 1015.44 1015.32 1015.10 1014.88
1020.78 1020.59 1020.82 1020.89 1021.18 1021.33 1021.37 1021.47 1021.54 1021.60 1021.75 1021.37 1021.13 1021.33 1021.38 1021.37 1020.69 1019.56 1019.28 1019.20 1018.98 1018.77 1018.47 1018.25 1018.04 1017.87 1017.81 1017.75 1017.60 1017.58 1017.45 1017.45 1017.36 1017.06 1016.79 1016.55 1016.33 1016.09 1015.56 1015.16 1015.08 1015.04 1014.87
1021.04 1020.82 1021.01 1020.92 1021.38 1021.52 1021.67 1021.60 1021.49 1021.67 1021.80 1021.89 1021.54 1021.37 1021.49 1021.65 1021.54 1021.07 1019.96 1019.55 1019.24 1018.98 1018.87 1018.46 1018.16 1017.87 1017.67 1017.52 1017.33 1017.19 1017.20 1017.16 1017.10 1016.91 1016.61 1016.27 1015.99 1015.78 1015.58 1015.25 1014.99 1014.95 1014.85
1020.97 1021.19 1021.21 1021.25 1021.55 1021.78 1021.83 1021.87 1021.86 1021.83 1021.94 1022.00 1022.00 1021.82 1021.54 1021.41 1021.32 1021.69 1021.05 1020.11 1019.75 1019.31 1018.90 1018.60 1018.14 1017.68 1017.44 1017.37 1017.33 1017.24 1017.08 1017.04 1016.85 1016.60 1016.33 1016.10 1015.70 1015.37 1015.16 1014.96 1014.93 1014.92 1014.68
1021.32 1021.38 1021.27 1021.61 1021.69 1021.94 1022.01 1021.86 1021.93 1021.83 1021.87 1021.90 1021.80 1021.80 1021.83 1021.77 1021.65 1021.65 1021.34 1020.74 1020.33 1019.26 1018.95 1018.48 1018.21 1017.58 1017.16 1016.96 1016.78 1016.62 1016.64 1016.70 1016.62 1016.49 1016.18 1015.82 1015.53 1015.22 1015.07 1014.83 1014.64 1014.57 1014.52
1021.38 1021.63 1021.56 1021.84 1021.83 1022.02 1022.05 1021.93 1021.89 1021.84 1021.72 1021.83 1021.70 1021.84 1021.63 1021.57 1021.39 1021.28 1021.24 1020.84 1020.32 1019.73 1019.22 1018.46 1018.09 1017.66 1017.05 1016.89 1016.74 1016.57 1016.43 1016.31 1016.19 1016.06 1015.87 1015.49 1015.22 1015.17 1015.14 1014.86 1014.52 1014.28 1014.16
1021.60 1021.71 1021.68 1021.88 1021.99 1022.05 1022.13 1022.05 1021.98 1021.88 1021.68 1021.72 1021.77 1021.78 1021.67 1021.55 1021.31 1021.18 1021.08 1021.01 1020.26 1019.89 1019.54 1018.96 1018.11 1017.72 1017.39 1017.21 1017.04 1016.73 1016.47 1016.08 1015.84 1015.62 1015.40 1015.15 1015.00 1014.91 1014.83 1014.67 1014.40 1014.10 1013.88
1021.51 1021.79 1021.86 1022.13 1022.22 1022.08 1022.12 1022.27 1022.13 1021.98 1021.95 1021.88 1021.81 1021.66 1021.60 1021.42 1021.28 1021.10 1020.96 1020.86 1020.66 1019.79 1019.32 1018.89 1018.51 1017.71 1017.44 1017.26 1016.97 1016.71 1016.37 1015.97 1015.57 1015.22 1015.01 1014.81 1014.59 1014.42 1014.29 1014.13 1013.99 1013.87 1013.65
1021.64 1021.86 1022.17 1022.34 1022.39 1022.33 1022.22 1022.26 1022.35 1022.27 1022.15 1022.03 1021.90 1021.82 1021.58 1021.40 1021.23 1021.04 1020.78 1020.61 1020.48 1020.12 1018.95 1018.90 1018.51 1017.98 1017.47 1016.92 1016.66 1016.42 1016.17 1015.80 1015.44 1015.04 1014.73 1014.44 1014.05 1013.79 1013.62 1013.51 1013.50 1013.36 1013.27
1021.92 1022.10 1022.34 1022.55 1022.56 1022.53 1022.51 1022.59 1022.60 1022.29 1022.21 1022.20 1021.99 1021.97 1021.75 1021.37 1021.18 1020.94 1020.68 1020.48 1020.31 1019.99 1019.16 1018.34 1018.10 1017.77 1017.46 1017.09 1016.63 1016.22 1015.87 1015.59 1015.27 1014.89 1014.59 1014.24 1013.87 1013.42 1013.17 1013.11 1012.98 1012.87 1012.69
1022.04 1022.29 1022.45 1022.60 1022.63 1022.70 1022.71 1022.64 1022.62 1022.36 1022.30 1022.27 1022.10 1021.88 1021.71 1021.33 1021.04 1020.76 1020.51 1020.34 1020.10 1019.78 1019.35 1018.28 1018.03 1017.73 1017.30 1016.87 1016.70 1016.52 1015.95 1015.43 1015.16 1014.75 1014.30 1013.84 1013.43 1012.90 1012.56 1012.42 1012.34 1012.22 1012.17
1022.54 1022.50 1022.55 1022.74 1022.79 1022.75 1022.62 1022.43 1022.29 1022.29 1022.37 1022.22 1022.02 1021.76 1021.49 1021.05 1020.79 1020.37 1020.15 1020.07 1019.86 1019.53 1019.24 1018.56 1017.72 1017.43 1016.98 1016.76 1016.49 1016.24 1015.85 1015.20 1014.61 1014.14 1013.84 1013.22 1012.95 1012.54 1012.11 1011.77 1011.54 1011.41 1011.25
1022.71 1022.61 1022.84 1022.88 1022.81 1022.61 1022.30 1022.12 1022.09 1022.24 1022.30 1021.96 1021.72 1021.45 1020.97 1020.47 1020.12 1019.88 1019.77 1019.77 1019.40 1019.27 1019.02 1018.53 1017.79 1017.31 1016.99 1016.57 1016.45 1016.10 1015.53 1015.02 1014.39 1013.80 1013.29 1013.05 1012.61 1012.02 1011.56 1011.10 1010.75 1010.59 1010.55
1022.67 1022.78 1022.82 1022.78 1022.61 1022.28 1022.10 1021.88 1021.85 1021.88 1021.94 1021.69 1021.35 1020.88 1020.36 1019.92 1019.63 1019.40 1019.19 1019.05 1019.03 1018.81 1018.52 1018.22 1017.78 1017.14 1016.61 1016.17 1016.13 1015.89 1015.39 1014.86 1014.27 1013.88 1013.10 1012.61 1012.49 1012.05 1011.37 1010.75 1010.29 1010.04 1009.87
1022.69 1022.80 1022.78 1022.61 1022.40 1022.17 1021.60 1021.45 1021.52 1021.48 1021.42 1021.24 1020.89 1020.49 1020.07 1019.55 1019.08 1018.80 1018.59 1018.40 1018.22 1017.93 1017.85 1017.66 1017.23 1016.82 1016.25 1016.03 1015.82 1015.54 1015.03 1014.49 1013.98 1013.38 1013.03 1012.27 1012.37 1011.72 1011.41 1010.80 1010.05 1009.44 1009.12
1022.76 1022.67 1022.59 1022.31 1022.03 1021.72 1021.43 1021.16 1020.94 1020.81 1020.81 1020.80 1020.57 1020.13 1019.54 1019.08 1018.67 1018.32 1018.05 1017.82 1017.65 1017.47 1017.24 1016.93 1016.57 1016.14 1015.76 1015.30 1015.03 1014.99 1014.66 1014.32 1013.80 1013.03 1012.99 1011.99 1012.08 1011.20 1010.91 1010.27 1009.51 1008.76 1008.42
1022.57 1022.42 1022.25 1021.92 1021.66 1021.14 1020.76 1020.55 1020.48 1020.34 1020.30 1020.12 1019.90 1019.47 1018.99 1018.46 1018.07 1017.80 1017.56 1017.33 1017.17 1017.06 1016.79 1016.35 1015.88 1015.37 1015.06 1014.59 1014.46 1014.29 1014.22 1013.94 1013.29 1012.84 1012.74 1011.98 1011.75 1010.92 1010.34 1009.71 1009.14 1008.38 1007.85
1022.22 1021.99 1021.57 1021.19 1020.94 1020.57 1020.26 1020.03 1019.83 1019.67 1019.58 1019.39 1019.20 1018.72 1018.29 1017.91 1017.56 1017.26 1017.01 1016.94 1016.78 1016.50 1016.11 1015.69 1015.20 1014.78 1014.39 1013.94 1013.61 1013.67 1013.80 1013.74 1013.11 1012.68 1012.53 1012.04 1011.31 1010.77 1010.10 1009.10 1008.16 1007.72 1007.33
1021.44 1021.25 1021.03 1020.74 1020.28 1019.90 1019.58 1019.36 1019.03 1018.93 1018.96 1018.71 1018.43 1018.10 1017.77 1017.40 1017.08 1016.81 1016.60 1016.66 1016.43 1016.10 1015.77 1015.28 1014.88 1014.36 1014.02 1013.59 1013.06 1013.08 1013.24 1013.30 1013.07 1012.28 1012.04 1012.18 1011.52 1011.38 1009.93 1008.86 1008.35 1008.04 1007.67
Wind_Speed
4 3 3 4 4 4 4 5 5 5 5 6 4 5 4 4 4 4 3 9 8 8 10 11 12 12 13 13 14 14 14 15 14 15 13 13 11 11 11 11 11 12 11
3 3 3 4 4 4 4 4 4 5 4 5 5 5 5 4 3 5 4 4 7 5 5 7 10 11 11 12 12 13 12 11 12 14 14 13 11 11 10 10 11 12 12
3 3 3 4 3 3 5 5 4 5 5 5 6 5 4 4 4 4 4 4 3 3 2 4 7 10 10 12 13 12 12 11 11 12 13 13 14 12 11 10 9 11 11
4 3 3 3 3 3 3 4 3 4 4 4 4 4 3 3 3 4 2 2 2 2 2 2 5 8 7 9 11 12 11 12 11 11 11 12 13 13 11 11 11 13 14
4 3 3 3 4 3 4 3 4 3 3 4 5 5 2 1 3 3 4 5 2 3 2 3 5 9 8 8 10 12 11 10 11 11 12 12 13 13 13 12 12 14 16
3 3 3 3 3 4 4 3 4 4 2 3 5 5 4 2 0 1 2 2 1 2 2 3 3 4 5 9 10 13 9 10 10 10 10 10 10 11 10 11 13 15 13
3 3 3 4 4 4 4 5 3 5 4 5 4 5 3 2 1 3 1 1 3 2 3 3 3 2 3 7 10 12 7 9 9 9 10 11 13 13 11 10 10 12 13
3 4 5 4 5 4 6 5 5 4 3 4 2 1 4 5 4 5 1 2 3 3 3 4 4 5 4 3 5 5 8 8 8 9 10 11 12 12 12 11 12 12 11
4 6 5 5 5 4 4 3 4 5 2 3 6 3 4 3 5 3 4 3 6 2 4 5 5 4 4 4 4 5 6 6 8 10 11 12 13 13 13 12 13 13 15
5 6 5 6 4 3 5 3 3 3 3 3 4 4 1 3 1 5 4 5 5 6 6 5 4 5 5 4 4 5 6 7 9 11 11 12 13 14 14 16 12 12 14
6 5 5 5 4 4 4 5 4 4 3 2 2 2 2 2 2 3 7 5 5 3 5 4 5 4 5 5 4 4 4 8 11 12 13 13 14 14 15 15 15 14 14
4 4 6 4 5 4 3 3 3 4 3 3 2 3 1 1 4 2 4 6 6 6 4 5 5 5 5 4 5 6 8 8 12 15 16 16 16 17 17 17 16 15 15
3 4 4 3 3 2 3 3 3 3 2 2 3 3 3 3 2 2 3 6 4 4 5 5 5 5 5 3 4 6 6 9 12 15 18 19 19 18 18 19 18 17 16
3 3 4 4 4 4 3 4 3 3 3 3 5 4 3 4 4 3 3 4 9 5 3 7 5 4 4 4 6 13 6 11 12 16 19 20 21 19 18 19 20 18 16
3 4 4 4 3 4 4 3 3 4 4 3 5 4 3 3 4 4 4 3 5 10 9 5 5 5 4 4 6 7 6 9 15 15 17 18 17 18 20 19 19 19 17
4 5 4 3 3 4 5 5 4 4 5 4 4 6 4 3 4 4 4 4 3 7 11 3 5 5 7 7 7 6 7 11 13 16 17 18 19 19 18 17 18 19 18
4 5 4 3 4 5 6 5 5 5 6 6 6 5 7 6 4 4 4 4 4 5 11 8 3 4 5 7 9 6 5 6 4 11 17 20 20 17 15 15 17 19 19
3 3 3 4 4 5 5 4 5 5 5 6 6 6 7 5 6 6 4 6 4 5 8 15 8 4 6 6 4 5 6 9 8 12 19 22 23 19 15 15 17 18 18
4 4 5 4 4 4 4 4 4 5 6 6 6 6 7 7 6 5 5 5 4 6 7 10 11 5 4 1 6 9 11 10 10 12 18 13 18 17 15 15 15 17 17
3 4 3 4 4 4 5 6 3 4 6 6 7 7 7 7 7 6 6 6 7 5 6 8 9 7 3 4 4 7 8 7 7 9 10 13 18 20 20 19 18 16 16
3 2 3 5 5 4 4 4 5 5 6 7 7 8 8 8 12 11 8 6 6 6 6 7 9 9 8 8 7 6 10 9 9 7 9 7 6 6 7 10 10 14 15
3 3 5 5 6 5 9 11 8 5 6 7 9 9 8 12 11 15 17 17 12 6 7 7 10 10 11 8 8 6 8 6 7 4 3 8 3 7 8 8 17 20 15
3 5 6 7 7 7 12 14 15 7 5 6 9 10 9 9 11 7 11 12 10 14 16 12 12 11 12 11 9 8 6 5 9 9 8 11 6 10 9 11 19 19 18
4 6 7 7 7 8 13 15 17 8 7 8 9 10 10 9 8 8 6 7 6 6 9 9 10 11 10 10 6 6 7 7 7 7 8 9 8 10 9 8 19 21 16
5 6 7 8 9 9 13 16 16 8 6 8 9 9 8 7 12 14 8 7 6 6 11 17 18 17 18 19 15 4 4 5 7 9 2 7 6 8 9 10 11 19 15
6 6 8 8 11 11 13 16 13 4 6 6 8 9 13 11 17 16 6 4 6 9 8 9 9 10 12 11 17 6 4 5 6 5 1 2 8 7 5 3 4 5 4
Wind_Direction
47 43 43 44 43 18 10 358 5 355 14 0 17 41 19 36 18 113 105 96 77 52 37 30 26 27 26 18 13 5 356 359 357 355 4 8 4 13 8 11 7 358 358
45 32 45 47 35 31 359 1 8 351 357 3 356 29 12 19 30 99 138 127 118 102 74 35 15 7 9 6 7 6 2 6 356 355 358 9 359 360 360 3 4 357 354
55 37 46 46 29 18 10 5 12 3 3 6 356 6 22 354 3 56 61 143 142 120 62 43 10 358 352 352 350 354 358 2 358 355 356 352 360 4 359 348 356 352 345
30 25 47 56 18 11 33 4 10 7 358 9 338 320 354 351 4 24 10 61 64 90 189 290 349 341 329 335 341 341 347 352 352 349 348 347 347 353 359 6 2 355 345
34 37 42 37 22 7 30 19 359 22 348 357 331 312 297 345 352 5 29 8 35 57 10 337 334 324 287 299 329 333 330 342 342 347 346 347 344 341 342 346 351 347 342
57 37 38 52 21 32 24 14 19 347 3 352 323 313 294 201 160 301 307 11 22 95 308 307 306 311 284 283 311 320 318 326 333 332 345 342 331 335 330 335 349 341 339
65 54 42 53 30 24 38 22 17 358 345 354 9 339 324 179 233 268 277 13 331 274 249 292 277 292 303 313 320 321 307 309 318 320 332 343 334 329 347 343 354 339 337
53 78 55 44 48 25 39 28 30 354 344 5 17 300 349 343 7 302 94 7 322 326 337 324 313 322 307 302 295 297 288 293 297 316 321 330 330 325 320 336 337 331 327
78 64 56 53 43 35 46 32 38 32 8 330 10 104 359 332 335 325 359 9 314 306 286 298 302 319 322 306 326 328 299 273 287 303 313 326 330 325 318 320 326 330 327
82 62 63 57 50 45 44 16 29 15 37 356 345 28 5 211 298 325 323 335 327 343 339 319 322 316 308 303 296 302 235 237 270 289 300 312 322 322 320 320 326 324 321
88 70 63 60 53 42 35 31 19 9 360 16 4 331 320 317 265 254 287 320 319 325 305 317 306 294 293 299 298 305 307 266 279 282 288 298 311 316 317 317 317 315 314
108 67 65 53 67 50 30 27 359 11 344 351 352 350 329 322 300 288 296 296 294 304 307 297 306 286 271 277 263 277 243 257 279 284 285 287 300 309 312 311 308 306 307
83 73 76 54 54 36 20 12 7 335 350 348 334 311 315 307 292 280 283 291 281 303 304 298 287 315 290 284 303 308 284 266 271 279 282 285 293 305 307 305 302 301 300
95 70 61 59 47 31 20 16 338 336 6 354 329 314 304 300 295 285 267 295 303 294 295 292 316 304 349 353 328 324 305 282 272 275 281 286 291 292 294 298 297 294 293
104 83 61 49 29 34 21 0 353 342 357 342 319 314 304 295 306 302 302 283 283 300 293 278 292 305 319 311 291 299 289 284 292 290 292 288 280 276 282 288 287 288 286
81 76 62 38 21 23 23 16 358 339 351 344 334 333 317 307 307 298 287 285 284 288 293 277 281 284 302 312 298 302 295 296 291 294 313 315 292 274 276 279 284 283 282
76 67 53 31 31 23 12 5 345 341 353 331 326 316 311 307 299 306 303 289 279 278 287 292 275 284 293 302 304 302 303 297 305 323 317 315 307 304 293 283 287 283 277
96 95 51 36 18 12 353 353 338 337 346 329 311 311 299 307 299 289 282 286 288 287 292 296 298 285 273 270 305 324 322 311 304 301 297 293 295 290 275 280 283 281 276
45 43 38 15 360 330 329 323 322 354 326 305 296 294 283 286 284 278 280 286 287 303 300 295 298 286 278 331 316 312 302 292 284 281 284 289 298 298 279 274 272 272 267
41 29 6 326 312 313 324 306 332 321 296 291 283 277 276 274 271 278 290 275 284 287 291 292 296 295 260 282 283 288 288 279 290 290 282 284 292 290 286 271 275 271 261
4 345 322 307 309 309 288 273 282 271 277 280 281 284 284 277 279 284 289 273 264 272 276 280 291 294 294 297 289 309 293 303 288 283 288 284 278 289 300 301 286 269 255
326 322 309 299 294 274 279 289 284 254 275 290 293 289 283 285 281 282 285 287 277 265 265 270 283 283 286 294 293 291 288 298 300 272 295 295 295 288 292 287 281 274 248
288 287 281 277 272 269 268 284 295 289 272 267 275 279 277 281 279 272 282 296 307 305 300 294 286 276 278 279 273 279 272 268 282 289 297 288 290 287 285 278 280 274 273
275 270 266 261 258 267 282 287 284 273 259 261 266 268 268 267 267 277 280 276 281 289 290 289 284 286 276 275 248 254 272 277 279 294 302 283 301 282 287 276 277 278 266
260 256 265 275 273 269 266 275 277 269 253 261 270 270 268 270 276 288 290 270 275 277 290 293 299 312 313 308 295 290 288 289 282 293 261 280 289 295 291 282 276 274 256
271 280 276 267 262 271 263 269 274 233 252 268 277 276 279 288 293 294 293 271 280 281 282 285 296 301 297 285 288 251 226 278 284 285 189 302 310 299 298 289 330 329 315